Tiempo cada hora Aarberg

Hoy, 24 Junio, Jueves

Tiempo Temperatura Precipitaciones Viento Presión Humedad
00:00 +15°C° 0.2 mm 1 mps 718 mmHg 94%
01:00 +14°C° 0 mm 1 mps 718 mmHg 94%
02:00 +14°C° 0 mm 1 mps 718 mmHg 94%
03:00 +14°C° 0 mm 1 mps 718 mmHg 93%
04:00 +14°C° 0.1 mm 0 mps 718 mmHg 93%
05:00 +14°C° 0.1 mm 0 mps 718 mmHg 92%
06:00 +15°C° 0.1 mm 0 mps 718 mmHg 92%
07:00 +16°C° 0.4 mm 0 mps 718 mmHg 89%
08:00 +17°C° 0.4 mm 0 mps 718 mmHg 86%
09:00 +18°C° 0.4 mm 0 mps 718 mmHg 82%
10:00 +20°C° 1 mm 1 mps 718 mmHg 80%
11:00 +21°C° 1 mm 1 mps 718 mmHg 79%
12:00 +22°C° 1 mm 1 mps 718 mmHg 77%
13:00 +19°C° 2.8 mm 2 mps 718 mmHg 82%
14:00 +18°C° 2.8 mm 2 mps 719 mmHg 88%
15:00 +17°C° 2.8 mm 2 mps 719 mmHg 93%
16:00 +16°C° 1.9 mm 2 mps 719 mmHg 94%
17:00 +16°C° 1.9 mm 1 mps 720 mmHg 95%
18:00 +15°C° 1.9 mm 1 mps 720 mmHg 96%
19:00 +15°C° 0.9 mm 1 mps 720 mmHg 96%
20:00 +14°C° 0.9 mm 1 mps 720 mmHg 96%
21:00 +14°C° 0.9 mm 1 mps 721 mmHg 96%
22:00 +14°C° 0.2 mm 1 mps 720 mmHg 96%
23:00 +14°C° 0.2 mm 1 mps 720 mmHg 96%

Mañana, 25 Junio, Viernes

Tiempo Temperatura Precipitaciones Viento Presión Humedad
00:00 +12°C° 0.2 mm 0 mps 720 mmHg 96%
01:00 +12°C° 0.3 mm 0 mps 720 mmHg 96%
02:00 +13°C° 0.3 mm 0 mps 720 mmHg 96%
03:00 +13°C° 0.3 mm 0 mps 720 mmHg 96%
04:00 +13°C° 0.2 mm 0 mps 720 mmHg 96%
05:00 +13°C° 0.2 mm 0 mps 720 mmHg 96%
06:00 +13°C° 0.2 mm 0 mps 720 mmHg 96%
07:00 +14°C° 0.2 mm 0 mps 720 mmHg 92%
08:00 +15°C° 0.2 mm 0 mps 720 mmHg 89%
09:00 +16°C° 0.2 mm 0 mps 720 mmHg 85%
10:00 +19°C° 0.4 mm 1 mps 720 mmHg 81%
11:00 +20°C° 0.4 mm 1 mps 719 mmHg 76%
12:00 +20°C° 0.4 mm 1 mps 719 mmHg 72%
13:00 +20°C° 0.4 mm 1 mps 719 mmHg 73%
14:00 +20°C° 0.4 mm 1 mps 719 mmHg 74%
15:00 +20°C° 0.4 mm 1 mps 719 mmHg 75%
16:00 +20°C° 0.2 mm 1 mps 719 mmHg 78%
17:00 +19°C° 0.2 mm 1 mps 719 mmHg 81%
18:00 +17°C° 0.2 mm 0 mps 719 mmHg 84%
19:00 +16°C° 0 mm 0 mps 719 mmHg 87%
20:00 +15°C° 0 mm 1 mps 719 mmHg 90%
21:00 +14°C° 0 mm 1 mps 719 mmHg 93%
22:00 +13°C° 0 mm 1 mps 719 mmHg 93%
23:00 +13°C° 0 mm 1 mps 719 mmHg 93%

Pasado mañana, 26 Junio, Sábado

Tiempo Temperatura Precipitaciones Viento Presión Humedad
00:00 +13°C° 0 mm 1 mps 719 mmHg 93%
01:00 +12°C° 0 mm 1 mps 719 mmHg 94%
02:00 +12°C° 0 mm 1 mps 719 mmHg 94%
03:00 +12°C° 0 mm 1 mps 718 mmHg 94%
04:00 +12°C° 0 mm 0 mps 719 mmHg 92%
05:00 +13°C° 0 mm 0 mps 719 mmHg 90%
06:00 +14°C° 0 mm 0 mps 719 mmHg 88%
07:00 +16°C° 0 mm 0 mps 719 mmHg 81%
08:00 +20°C° 0 mm 1 mps 719 mmHg 73%
09:00 +21°C° 0 mm 1 mps 719 mmHg 65%
10:00 +23°C° 0 mm 1 mps 718 mmHg 60%
11:00 +24°C° 0 mm 1 mps 718 mmHg 55%
12:00 +25°C° 0 mm 1 mps 718 mmHg 50%
13:00 +25°C° 0 mm 1 mps 718 mmHg 50%
14:00 +25°C° 0 mm 1 mps 718 mmHg 49%
15:00 +26°C° 0 mm 1 mps 718 mmHg 48%
16:00 +24°C° 0 mm 1 mps 717 mmHg 57%
17:00 +23°C° 0 mm 1 mps 717 mmHg 66%
18:00 +20°C° 0 mm 0 mps 717 mmHg 74%
19:00 +21°C° 0 mm 1 mps 717 mmHg 76%
20:00 +19°C° 0 mm 1 mps 717 mmHg 79%
21:00 +18°C° 0 mm 1 mps 717 mmHg 81%
22:00 +16°C° 0 mm 1 mps 716 mmHg 82%
23:00 +16°C° 0 mm 1 mps 716 mmHg 83%

27 Junio, Domingo

Tiempo Temperatura Precipitaciones Viento Presión Humedad
00:00 +16°C° 0 mm 1 mps 716 mmHg 84%
01:00 +15°C° 0 mm 1 mps 716 mmHg 85%
02:00 +15°C° 0 mm 1 mps 716 mmHg 85%
03:00 +15°C° 0 mm 1 mps 716 mmHg 86%
04:00 +16°C° 0 mm 1 mps 716 mmHg 83%
05:00 +18°C° 0 mm 1 mps 716 mmHg 80%
06:00 +19°C° 0 mm 1 mps 716 mmHg 77%
07:00 +21°C° 0 mm 1 mps 716 mmHg 71%
08:00 +23°C° 0 mm 1 mps 716 mmHg 65%
09:00 +25°C° 0 mm 1 mps 716 mmHg 59%
10:00 +26°C° 0 mm 1 mps 716 mmHg 55%
11:00 +27°C° 0 mm 2 mps 716 mmHg 51%
12:00 +28°C° 0 mm 2 mps 715 mmHg 47%
13:00 +28°C° 0 mm 2 mps 715 mmHg 51%
14:00 +28°C° 0 mm 2 mps 715 mmHg 56%
15:00 +27°C° 0 mm 2 mps 715 mmHg 60%
16:00 +25°C° 2.9 mm 2 mps 715 mmHg 72%
17:00 +23°C° 2.9 mm 2 mps 716 mmHg 84%
18:00 +20°C° 2.9 mm 1 mps 716 mmHg 95%
19:00 +20°C° 0.1 mm 1 mps 716 mmHg 95%
20:00 +19°C° 0.1 mm 1 mps 716 mmHg 96%
21:00 +19°C° 0.1 mm 1 mps 715 mmHg 96%
22:00 +18°C° 0.6 mm 1 mps 715 mmHg 96%
23:00 +18°C° 0.6 mm 1 mps 716 mmHg 96%

28 Junio, Lunes

Tiempo Temperatura Precipitaciones Viento Presión Humedad
00:00 +18°C° 0.6 mm 1 mps 716 mmHg 96%
01:00 +16°C° 0.8 mm 1 mps 716 mmHg 97%
02:00 +16°C° 0.8 mm 1 mps 716 mmHg 97%
03:00 +16°C° 0.8 mm 1 mps 716 mmHg 97%
04:00 +18°C° 0.2 mm 1 mps 716 mmHg 97%
05:00 +18°C° 0.2 mm 1 mps 717 mmHg 96%
06:00 +17°C° 0.2 mm 0 mps 717 mmHg 95%
07:00 +19°C° 0.2 mm 1 mps 717 mmHg 93%
08:00 +20°C° 0.2 mm 1 mps 717 mmHg 91%
09:00 +20°C° 0.2 mm 1 mps 717 mmHg 89%
10:00 +21°C° 0.3 mm 1 mps 717 mmHg 87%
11:00 +21°C° 0.3 mm 1 mps 717 mmHg 84%
12:00 +22°C° 0.3 mm 1 mps 717 mmHg 82%
13:00 +21°C° 1.1 mm 1 mps 718 mmHg 84%
14:00 +21°C° 1.1 mm 1 mps 718 mmHg 86%
15:00 +20°C° 1.1 mm 2 mps 718 mmHg 87%
16:00 +20°C° 0.7 mm 2 mps 717 mmHg 89%
17:00 +19°C° 0.7 mm 2 mps 717 mmHg 91%
18:00 +19°C° 0.7 mm 2 mps 717 mmHg 93%
19:00 +20°C° 1.4 mm 1 mps 718 mmHg 94%
20:00 +19°C° 1.4 mm 1 mps 718 mmHg 96%
21:00 +18°C° 1.4 mm 1 mps 718 mmHg 98%
22:00 +18°C° 1.1 mm 1 mps 718 mmHg 97%
23:00 +18°C° 1.1 mm 1 mps 718 mmHg 97%

29 Junio, Martes

Tiempo Temperatura Precipitaciones Viento Presión Humedad
00:00 +16°C° 1.1 mm 0 mps 717 mmHg 97%
01:00 +16°C° 0.5 mm 0 mps 717 mmHg 97%
02:00 +16°C° 0.5 mm 0 mps 717 mmHg 97%
03:00 +16°C° 0.5 mm 0 mps 717 mmHg 97%
04:00 +16°C° 0.3 mm 0 mps 717 mmHg 98%
05:00 +16°C° 0.3 mm 0 mps 717 mmHg 98%
06:00 +16°C° 0.3 mm 0 mps 717 mmHg 98%
07:00 +16°C° 0.9 mm 0 mps 717 mmHg 98%
08:00 +16°C° 0.9 mm 0 mps 717 mmHg 98%
09:00 +18°C° 0.9 mm 1 mps 718 mmHg 97%
10:00 +16°C° 0.5 mm 0 mps 718 mmHg 96%
11:00 +17°C° 0.5 mm 0 mps 718 mmHg 95%
12:00 +17°C° 0.5 mm 0 mps 718 mmHg 94%
13:00 +17°C° 1.2 mm 0 mps 718 mmHg 94%
14:00 +17°C° 1.2 mm 0 mps 718 mmHg 94%
15:00 +17°C° 1.2 mm 0 mps 718 mmHg 95%
16:00 +16°C° 3.1 mm 0 mps 718 mmHg 96%
17:00 +18°C° 3.1 mm 1 mps 718 mmHg 96%
18:00 +16°C° 3.1 mm 1 mps 718 mmHg 97%
19:00 +16°C° 1.5 mm 1 mps 718 mmHg 97%
20:00 +16°C° 1.5 mm 1 mps 719 mmHg 97%
21:00 +15°C° 1.5 mm 1 mps 719 mmHg 97%
22:00 +15°C° 0.5 mm 1 mps 719 mmHg 97%
23:00 +15°C° 0.5 mm 1 mps 719 mmHg 97%
Mostrar más

Necesitamos Su Consentimiento

Meteoprog y nuestros Proveedores de Servicios pueden almacenar y acceder a sus datos personales como cookies, identificadores de dispositivo u otras tecnologías similares de su dispositivo y procesar dichos datos para personalizar contenido y anuncios, además de ofrecer funciones de redes sociales y analizar el tráfico.

  • Almacenar y/o acceder a información en su dispositivo

    Se puede almacenar o acceder a cookies, identificadores de dispositivo u otra información de su dispositivo para los fines anteriormente indicados.

  • Anuncios y contenido personalizados, medición de anuncios y contenido, percepciones del público, y desarrollo de productos

    Los anuncios y el contenido pueden personalizarse en base a su perfil. Se pueden añadir más datos para personalizar mejor los anuncios y contenidos. Se puede medir el rendimiento de los anuncios y contenidos. Se puede obtener la percepción sobre el público que ha visto los anuncios y contenidos. Dichos datos pueden usarse para desarrollar o mejorar la experiencia del usuario, sistemas y software.

Al hacer clic en ‘Estoy De Acuerdo’ usted permitirá el uso de las cookies, identificadores de dispositivo, balizas web u otras tecnologías similares indicadas. Su configuración puede cambiarse desde el navegador de su dispositivo.

Para ciertos fines, los intereses legítimos pueden ser considerados por encima del consentimiento. Puede leer más sobre ello en nuestra Política de Privacidad y Cookies.